User: anonymous   Login
Location: Vale
(35.4830°N, 81.3830°W)
Time: 20:19:07
(UTC-04:00)
Language:

Oscar 11 - Orbit

View from above orbital plane
View from above orbital plane
View from above satellite
View from above satellite

Ground track
Ground track

The orbit data is extracted from the following two-line orbital elements,

1 14781U 84021B   16147.16922101  .00000159  00000-0  26027-4 0  9993
2 14781  97.7512 199.8444 0009297  35.7235 324.4599 14.82743271732990
Epoch (UTC): 26 May 2016 04:03:40
Eccentricity: 0.0009297
inclination: 97.7512°
perigee height: 614 km
apogee height: 627 km
right ascension of ascending node: 199.8444°
argument of perigee: 35.7235°
revolutions per day: 14.82743271
mean anomaly at epoch: 324.4599°
orbit number at epoch: 73299

The dashed part of the orbit path shows where the satellite is in the earth's shadow,  

DLR